Location: Berg
(48.4333°N, 13.9167°E)
Time: 22:42:47
(UTC+00:00)

Cosmos 1943 - Pass Details

Date: 18 September 2020
Orbit: 833 x 851 km, 71.0° (Epoch: 30 October)

Event Time Altitude Azimuth Distance (km) Brightness Sun altitude
Rises 18:01:44 0° 330° (NNW) 3,400 7.0 -9.3°
Reaches altitude 10° 18:04:11 10° 329° (NNW) 2,464 6.3 -9.7°
Maximum altitude 18:09:49 72° 246° (WSW) 888 3.5 -10.6°
Drops below altitude 10° 18:15:26 10° 163° (SSE) 2,460 5.3 -11.5°
Sets 18:17:53 0° 161° (SSE) 3,394 6.0 -11.9°
